Location: Kopernik Observatory
(42.0014°N, 76.0372°W)
Time: 15:34:55
(UTC-04:00)

Daily predictions for brighter satellites

Satellite Brightness Start Highest point End
(mag) Time Altitude Azimuth Time Altitude Azimuth Time Altitude Azimuth
Cosmos 2219 Rocket 3.2 20:54:16 10° SW 20:59:46 52° WNW 21:05:17 10° NNE
Cosmos 2058 Rocket 3.4 20:57:59 10° N 21:02:14 46° ENE 21:06:26 10° SSE
Lacrosse 5 rocket 1.1 20:59:09 10° SW 21:02:57 67° SE 21:06:58 10° NE
SL-16 R/B 2.4 20:58:29 10° S 21:03:55 52° ESE 21:09:24 10° NNE
deb Chang Zheng 4 3.6 21:05:47 10° NNE 21:10:11 68° ESE 21:14:32 10° S
Cosmos 1666 3.6 21:07:06 10° N 21:10:40 33° ENE 21:14:13 10° SE
Cosmos 1500 4.1 21:08:05 10° NNW 21:11:52 50° W 21:15:37 10° S
Abrixas rocket 3.0 21:08:55 10° NW 21:12:16 49° NNE 21:15:38 10° E
Meteor 1-23 Rocket 4.3 21:07:27 10° S 21:12:57 59° E 21:18:34 10° NNE
Okean 2 3.7 21:09:32 10° SSE 21:13:35 50° E 21:17:38 10° NNE
Aureole 2 Rocket 3.6 21:10:56 10° SSE 21:14:26 29° ESE 21:17:41 10° NE
Cosmos 494 Rocket 4.0 21:14:22 10° S 21:19:22 60° ESE 21:24:25 10° NNE
Cosmos 1743 2.9 21:15:57 10° NNW 21:19:48 72° W 21:23:36 10° S
Cosmos 1461 4.1 21:19:54 10° NNW 21:23:48 31° NE 21:27:10 12° ESE
Cosmos 1606 Rocket 4.3 21:25:00 10° NNW 21:29:21 55° W 21:33:39 10° S
Cosmos 1603 4.3 21:27:41 10° SSE 21:32:41 34° ESE 21:37:42 10° NE
MetOp-B 4.5 21:28:40 12° SE 21:33:23 51° ENE 21:38:33 10° N
H-2A R/B 2.6 21:32:22 10° S 21:36:30 56° W 21:40:46 10° NNW
Meteor 2-9 Rocket 4.2 21:31:49 10° N 21:37:30 83° E 21:43:18 10° S
Meteor 2-4 Rocket 3.9 21:32:09 10° S 21:37:59 85° W 21:43:58 10° N
Cosmos 1331 Rocket 4.2 21:33:45 10° NNW 21:38:57 70° WSW 21:44:03 10° S
CZ-2C R/B 3.2 21:37:34 10° SW 21:39:14 17° W 21:40:54 10° NW
SPOT 5 2.6 21:38:17 13° SSE 21:42:19 79° ENE 21:46:41 10° N
Cosmos 2333 Rocket 4.1 21:37:45 10° WSW 21:42:50 33° NW 21:47:56 10° N
Cosmos 2297 4.2 21:40:33 10° NNW 21:46:08 58° WSW 21:51:37 10° S
Cosmos 1626 Rocket 3.6 21:41:55 10° S 21:46:17 59° E 21:50:39 10° NNE
Cosmos 1302 Rocket 4.0 21:42:09 10° NNW 21:47:26 83° ENE 21:51:34 17° SSE
CZ-4 SHROUD 3.6 21:49:26 15° S 21:51:54 62° W 21:55:02 10° NNW
Cosmos 1891 Rocket 4.4 21:46:48 10° N 21:53:00 90° WNW 21:58:43 12° S
APEX 3.5 21:49:43 10° NNW 21:53:39 87° WSW 21:57:11 19° SSE
Lacrosse 5 4.3 21:52:49 10° W 21:56:56 24° NNW 22:01:03 10° NNE
SeaSat 1 2.8 21:53:09 15° SSE 21:57:14 62° WSW 22:02:09 10° NNW
ATLAS CENTAUR R/B 3.7 21:54:15 10° WSW 21:58:48 34° NW 22:03:24 10° NNE
CZ-4B R/B 3.5 21:54:16 10° NNE 21:59:17 66° ESE 22:04:21 10° S
Cosmos 1943 4.3 21:57:45 20° SE 21:59:33 24° E 22:03:58 10° NE
Cosmos 2228 3.7 21:59:43 10° NNW 22:04:02 54° W 22:07:57 12° S
BREEZE-M DEB (TANK) 3.6 22:11:16 10° W 22:13:01 19° SW 22:13:12 19° SW
Tsikada Rocket 4.1 22:07:53 10° S 22:14:19 86° W 22:20:45 10° N
YAOGAN 6 2.6 22:13:00 29° S 22:14:50 85° W 22:18:36 10° NNW
Terra 3.0 22:13:07 22° ESE 22:15:04 29° ENE 22:19:11 10° N
Cosmos 1943 Rocket 4.2 22:12:34 10° N 22:15:55 16° NE 22:19:16 10° E
Atlas Centaur 2 3.8 22:10:29 10° SW 22:17:15 30° SSE 22:20:37 23° SE
COSMOS 2455 2.9 22:13:47 10° S 22:19:37 55° ESE 22:25:29 10° NE
CZ-4C R/B 3.8 22:17:57 32° SE 22:19:41 53° ENE 22:23:45 10° N
Envisat 4.1 22:16:48 10° SSW 22:21:29 39° W 22:26:14 10° NNW
ATLAS 3B R/B 3.5 22:18:09 22° SSE 22:22:01 34° ESE 22:28:38 10° NE
SL-08 RB Rocket 3.7 22:23:10 32° SSE 22:25:15 71° ENE 22:29:47 10° N
USA 81 4.1 22:20:18 10° N 22:25:34 64° E 22:28:05 31° SSE
Cosmos 407 Rocket 4.5 22:25:05 26° ESE 22:25:50 27° E 22:30:12 10° NE
IGS 5A 4.4 22:29:32 29° E 22:30:33 33° ENE 22:34:18 10° N
USA 234 3.5 22:27:51 26° SSE 22:31:39 58° SW 22:38:08 10° NW
Cosmos 1758 Rocket 4.1 22:36:07 37° ESE 22:36:45 39° E 22:40:51 10° NNE
Cosmos 1953 4.2 22:38:21 10° NNE 22:41:06 18° ENE 22:41:17 18° ENE
CARTOSAT-1 3.8 22:40:38 42° ESE 22:41:44 54° ENE 22:45:58 10° N
Lacrosse 5 rocket 3.9 22:39:27 10° W 22:42:35 22° NNW 22:45:52 10° NNE
Cosmos 2369 Rocket 2.4 22:38:23 10° NNW 22:43:59 58° ENE 22:46:13 35° SE
Cosmos 2142 Rocket 4.4 22:39:39 10° N 22:46:01 84° E 22:49:05 33° SSE
SAR-Lupe-2 3.5 22:47:10 64° ESE 22:47:29 69° ENE 22:51:03 10° N
SL-16 R/B 4.4 22:43:44 10° WSW 22:48:20 25° NW 22:52:59 10° N
Lacrosse 4 Rocket 2.8 22:50:41 23° ENE 22:50:41 23° ENE 22:52:48 10° NE
Abrixas rocket 3.6 22:46:14 10° WNW 22:48:52 30° SW 22:48:52 30° SW
ARGOS 3.5 22:48:12 27° S 22:51:03 58° W 22:56:25 10° NNW
H-2A R/B 1.9 22:50:30 43° SE 22:52:04 73° ENE 22:57:05 10° N
Meteor 1-22 Rocket 4.2 22:47:40 10° N 22:53:13 76° E 22:55:18 40° SSE
Cosmos 1825 Rocket 3.7 22:54:01 36° SSW 22:55:46 74° W 23:00:12 10° N
Cosmos 1634 Rocket 4.0 22:53:04 10° N 22:59:13 75° W 23:02:13 32° S
Cosmos 1992 Rocket 4.1 22:56:38 10° NNW 23:01:52 71° WSW 23:03:30 43° S
Cosmos 1461 4.3 22:59:17 10° NW 23:02:55 27° WSW 23:03:39 25° SW
Cosmos 2263 4.4 22:57:25 10° NNW 23:02:58 59° ENE 23:04:44 41° ESE
DMSP B5D2-2 4.0 23:00:08 10° NNE 23:05:27 74° ESE 23:07:02 46° S
Cosmos 1346 Rocket 2.8 23:10:07 65° SW 23:10:32 73° W 23:14:27 10° N
Cosmos 1190 Rocket 4.0 23:14:26 38° SSW 23:16:33 83° WNW 23:21:54 10° NNE
Cosmos 489 Rocket 4.4 23:20:42 36° SSW 23:23:32 88° ESE 23:29:57 10° NNE
Cosmos 1758 3.8 23:20:43 10° N 23:24:30 51° ENE 23:24:30 51° ENE
Cosmos 2279 Rocket 4.0 23:19:57 10° N 23:26:13 79° W 23:28:18 45° S
Spot 4 3.9 23:27:26 55° SSW 23:28:12 65° WSW 23:32:58 10° NNW
Meteor 1-21 4.3 23:26:42 42° SSW 23:28:44 79° W 23:34:34 10° N
Cosmos 1842 3.4 23:32:29 74° N 23:32:29 74° N 23:36:07 10° N
Cosmos 676 Rocket 3.9 23:31:29 60° S 23:32:29 82° ESE 23:37:51 10° NNE
Cosmos 1943 3.9 23:39:28 20° SW 23:43:13 50° WNW 23:48:46 10° NNE
Cosmos 1932 4.4 23:45:41 56° SE 23:46:15 58° ESE 23:52:21 10° NE
Cosmos 1140 Rocket 3.6 23:49:49 57° E 23:49:49 57° E 23:54:51 10° NNE
Cosmos 1766 4.5 23:46:31 10° NNW 23:50:05 34° W 23:50:05 34° W
Terra 3.1 23:51:59 28° WSW 23:52:44 30° W 23:56:56 10° NW
